Погода в Центральном

Россия / Нижегородская область     56°04′28″N   43°30′12″E
темп.,
°C
ветер,
м/с
пор.,
м/с
влажн.,
%
обл.,
%
осадки,
мм/ч
давл.,
гПа
погр.,
м
1 июля, пт
пт100:00+14св51050100 0.0 1014464
03:00+9ссв510655 0.0 1015305
06:00+10св69651 0.0 1016793
09:00+12ссв71056100 0.0 10171534
12:00+8св61084100 0.6 10191037
15:00+13св6106593 0.7 10191352
18:00+14св486451 0.0 10191129
21:00+11ссв47805 0.0 1020115
2 июля, сб
сб200:00+10с411891 0.0 1020177
03:00+9с488832 0.0 1020129
06:00+12с49763 0.0 1020246
09:00+18с57552 0.0 1020763
12:00+21ссв57465 0.0 10181725
15:00+23с56445 0.0 10171890
18:00+22ссз37594 0.0 1015339
21:00+17сз4969100 0.0 1014171
3 июля, вс
вс300:00+18сз4107049 0.0 1014223
03:00+15ссз488883 0.0 1013129
06:00+16св38800 0.0 1014292
09:00+20ссв686832 0.0 10141077
12:00+21св68535 0.0 10141550
15:00+23св575016 0.0 10141843
18:00+22св466124 0.0 1014449
21:00+16вюв227949 0.0 101611
4 июля, пн
пн400:00+14св11812 0.0 101611
03:00+13ссз22825 0.0 101710
06:00+16сз358098 0.0 1017134
09:00+21ссз475882 0.0 1017718
12:00+24ссв46459 0.0 10172302
15:00+26с35416 0.0 10162361
18:00+25с24587 0.0 1015180
21:00+19юв22693 0.0 101619
5 июля, вт
вт500:00+17ю226429 0.0 101726
03:00+15юз237710 0.0 101721
06:00+19з127148 0.0 101774
09:00+24зсз22570 0.0 1017485
12:00+27з22450 0.0 10161386
15:00+28з23414 0.0 10151530
18:00+27юз1354100 0.0 1014453
21:00+19юз358777 0.0 101483